Regional Weather Roundup
Issued by NWS

Home | Current Version | Previous Version | Graphics & Text | Print | Product List | Glossary On
Versions: 1 2 3 4 5 6 7 8 9 10 11 12 13 14 15 16 17 18 19 20 21 22 23 24 25 26 27 28 29 30 31 32 33 34 35 36 37 38 39 40 41 42 43 44 45 46 47 48 49 50
000
ASUS43 KLMK 050702
RWRKY
KENTUCKY REGIONAL WEATHER ROUNDUP
NATIONAL WEATHER SERVICE LOUISVILLE KY
300 AM EDT THU MAY 05 2016

NOTE "FAIR" INDICATES FEW OR NO CLOUDS BELOW 12,000 FEET
WITH NO SIGNIFICANT WEATHER AND/OR OBSTRUCTIONS TO VISIBILITY.

KYZ001>023-026-027-061>063-070>075-050800-
WESTERN AND SOUTH CENTRAL KENTUCKY

CITY           SKY/WX    TMP DP  RH WIND       PRES   REMARKS
PADUCAH        CLEAR     43  40  89 SW5       29.85F
HENDERSON      MOCLDY    50  43  76 W7        29.81F
OWENSBORO      CLOUDY    50  45  83 W6        29.81F
HOPKINSVILLE   CLEAR     47  42  82 SW3       29.83F
BOWLING GREEN  CLOUDY    48  41  76 CALM      29.81F
GLASGOW        NOT AVBL
$$

KYZ024-025-028>034-038-045-046-053-050800-
NORTH CENTRAL KENTUCKY

CITY           SKY/WX    TMP DP  RH WIND       PRES   REMARKS
LOUISVILLE/SDF MOCLDY    49  40  71 W5        29.77F
LOUISVILLE/LOU MOCLDY    48  38  68 CALM      29.77F
FORT KNOX      CLOUDY    45  40  85 W6        29.75F
$$

KYZ035>037-039>044-047>052-055>060-089>105-050800-
NORTHEAST KENTUCKY

CITY           SKY/WX    TMP DP  RH WIND       PRES   REMARKS
LEXINGTON      CLOUDY    43  38  82 W3        29.75F
COVINGTON      LGT RAIN  42  40  92 NW6       29.72F
FRANKFORT      MOCLDY    45  38  76 W6        29.74F
$$

KYZ054-064>069-076>088-106>120-050800-
SOUTHEAST KENTUCKY

CITY           SKY/WX    TMP DP  RH WIND       PRES   REMARKS
JACKSON        PTCLDY    42  39  89 NW5       29.74F
LONDON         CLOUDY    45  42  89 NW5       29.75F
SOMERSET       NOT AVBL
MIDDLESBORO    NOT AVBL
MONTICELLO     MOSUNNY   47  45  93 W6        29.79F
$$





USA.gov is the U.S. government's official web portal to all federal, state and local government web resources and services.